Temp
20 21 22 22 21 22 23 26 29 28 30 28 28 28 27 27 28 24 27 26 23 21 20 21 21 20 20 20 20 19 19 19 19 18 18 18 18 18 18 18 18 18 18 18 17 17 17 17 17
19 21 23 20 21 22 24 27 27 28 27 28 29 27 26 26 27 26 26 25 23 21 21 20 20 20 20 20 20 20 19 19 19 18 18 18 18 17 17 17 17 17 17 17 17 17 17 17 18
19 21 21 21 21 22 25 27 27 27 27 28 29 27 24 24 27 27 26 26 24 22 21 20 20 20 20 20 20 20 19 19 19 19 18 18 17 17 17 17 17 17 17 17 17 17 17 17 18
20 22 22 22 23 24 26 27 27 27 27 28 28 26 24 24 28 27 26 26 23 23 22 21 20 20 20 20 20 19 19 19 19 19 19 18 18 18 17 17 17 17 17 17 18 18 18 18 19
19 20 20 22 23 25 27 26 26 27 26 27 27 24 23 23 25 26 26 26 24 22 22 21 20 20 20 20 20 19 19 19 19 19 19 19 19 18 18 18 17 17 17 17 18 18 18 18 18
17 21 21 21 23 26 25 25 26 27 27 26 26 22 22 23 25 26 27 26 24 22 20 20 20 20 20 19 19 19 19 19 19 19 19 19 19 18 19 18 18 18 18 18 18 18 18 18 18
17 19 20 22 23 25 24 25 25 26 26 26 27 25 20 21 23 25 26 26 23 21 20 20 20 20 19 19 19 19 19 18 19 19 19 19 19 19 19 18 18 18 18 18 18 18 18 18 18
18 18 20 22 24 24 24 24 23 24 23 25 24 24 21 21 20 23 26 25 23 22 21 20 19 19 19 19 19 19 19 19 18 19 19 18 19 18 18 18 18 19 18 18 19 18 19 19 19
18 17 18 21 22 22 23 23 23 24 24 24 23 19 20 21 21 22 24 25 23 22 22 21 20 20 20 19 20 19 19 19 19 19 19 19 19 18 18 18 18 18 18 19 19 19 19 19 19
15 16 19 22 21 22 22 23 23 24 23 23 22 21 20 20 21 21 22 22 22 22 21 21 21 21 21 20 20 19 19 19 19 19 19 20 19 19 18 18 18 18 18 18 19 19 19 19 19
16 16 19 20 20 22 23 21 23 24 22 21 22 20 20 19 19 22 22 22 22 22 21 21 21 21 21 21 20 20 20 20 20 20 21 21 21 20 19 19 19 19 19 19 19 19 19 19 19
15 16 17 18 17 19 21 22 22 21 21 22 22 21 19 19 19 20 21 22 22 22 21 21 21 21 21 21 21 21 21 21 22 21 21 21 21 20 20 20 20 19 19 20 19 19 20 20 19
14 17 18 18 17 17 19 22 22 21 22 23 24 21 19 19 19 20 20 22 22 21 21 21 21 21 21 21 22 23 22 22 22 21 21 21 21 20 20 20 20 20 20 20 20 20 20 20 20
18 19 18 18 18 17 15 21 21 21 22 22 23 22 20 20 19 18 18 19 21 21 22 21 21 21 21 21 22 22 23 22 22 21 21 20 20 20 20 20 20 20 20 20 20 20 20 20 20
21 18 16 16 18 17 16 16 19 21 22 22 22 22 21 20 19 20 20 19 20 21 21 21 21 21 21 21 21 22 22 22 22 21 20 20 20 20 20 20 20 20 20 20 20 20 20 20 20
18 18 15 15 18 18 16 17 20 21 20 21 22 22 21 21 22 22 21 22 20 21 21 21 22 21 20 21 21 21 22 22 22 21 21 20 20 19 19 19 20 20 20 20 19 20 20 20 20
15 15 17 17 16 16 15 16 21 21 20 20 21 21 22 21 23 23 22 22 22 22 21 21 21 21 22 21 21 21 22 22 22 22 21 21 20 20 19 20 20 20 20 20 19 19 19 20 20
15 16 17 18 16 16 15 16 20 21 20 20 20 21 21 22 21 23 22 22 22 22 22 22 21 21 22 21 21 21 21 22 22 22 22 22 21 20 20 20 20 20 20 20 19 19 20 19 19
18 18 18 19 20 19 18 18 19 20 20 19 19 20 20 21 22 23 22 22 22 21 22 21 21 21 21 22 22 22 21 21 21 21 21 21 21 20 20 19 19 20 19 19 19 19 19 19 19
14 17 18 19 17 18 18 19 19 19 19 19 19 20 20 21 22 21 22 22 22 21 21 20 21 20 21 21 20 21 21 21 20 20 20 20 20 19 19 19 18 19 19 19 18 18 17 18 18
13 16 18 15 18 17 17 17 19 20 20 20 20 20 21 21 21 20 21 22 22 22 21 21 20 21 20 20 20 20 19 19 19 19 19 18 18 18 18 17 17 17 17 17 17 17 16 15 16
15 18 19 18 16 16 17 16 19 20 19 20 20 20 20 21 23 22 21 21 21 21 21 20 20 20 19 19 19 19 19 19 19 19 18 17 17 16 16 16 16 15 15 15 15 15 15 15 15
16 19 18 18 17 18 17 16 18 20 19 19 19 19 20 20 21 22 20 21 21 20 20 19 19 18 18 18 18 18 18 18 18 18 17 16 16 16 15 15 15 14 14 14 14 14 14 13 13
17 17 16 17 17 13 18 18 17 18 19 19 20 21 20 20 21 21 21 20 19 19 18 18 17 17 17 17 17 17 18 17 17 16 16 15 14 14 14 14 13 13 12 13 13 12 12 13 12
17 15 13 12 11 13 18 17 17 20 21 22 20 21 21 20 19 19 18 17 17 17 16 16 17 16 16 16 16 17 17 16 16 15 15 14 14 13 12 12 12 12 12 12 11 11 11 12 12
16 16 13 14 13 14 18 16 17 20 20 19 20 21 20 20 19 19 18 18 17 16 15 15 16 15 15 15 15 15 15 15 14 14 13 13 13 12 11 11 11 11 11 10 10 10 11 11 11
16 14 17 15 17 13 16 18 20 20 20 21 20 20 20 20 19 20 20 18 16 15 15 15 15 15 15 14 14 14 13 13 13 12 12 11 11 11 10 10 9 9 9 9 10 10 10 10 10
15 17 14 11 13 16 16 18 17 19 19 18 17 17 17 19 19 18 17 18 18 16 15 15 15 14 14 13 13 12 11 12 12 11 10 10 10 9 9 9 8 8 8 8 8 8 8 9 9
15 13 16 16 13 13 14 16 18 17 17 17 17 17 17 17 17 17 16 18 18 16 15 15 14 13 13 12 12 11 11 11 10 10 10 9 9 9 8 8 7 7 7 7 7 7 8 8 8
15 16 16 11 14 13 12 15 20 17 18 17 17 19 19 17 16 16 15 16 16 15 15 14 14 13 12 11 11 11 10 10 9 9 8 8 7 7 7 7 6 6 6 6 6 6 6 6 6
Height
792 792 792 793 811 802 801 787 766 773 763 760 759 770 775 768 773 798 778 782 786 792 798 805 810 813 815 818 820 822 824 826 829 831 832 834 834 834 836 837 838 839 840 842 843 843 844 845 845
791 790 792 793 809 810 798 769 775 776 765 762 763 769 773 779 770 773 778 784 788 793 799 805 810 814 816 818 820 823 825 827 829 832 834 836 836 837 838 839 840 841 843 844 845 845 846 847 848
791 789 794 797 800 802 789 766 765 765 765 766 766 768 780 784 779 775 779 785 790 796 802 806 810 814 817 819 822 824 826 828 830 833 835 837 839 839 839 840 842 843 845 846 846 847 848 849 849
790 789 789 794 792 781 774 761 761 766 770 766 768 781 787 782 780 778 782 787 791 798 802 807 812 815 818 820 823 825 828 829 831 834 836 839 841 841 841 842 844 844 846 847 848 849 850 851 851
789 785 796 790 784 770 763 762 767 768 770 771 769 788 788 785 783 782 785 789 793 798 803 809 813 817 819 822 824 826 829 830 832 834 837 840 841 842 843 845 846 846 847 849 850 851 852 852 853
791 780 791 791 782 765 765 765 767 767 763 769 771 784 796 791 786 787 789 792 794 799 805 810 815 818 821 824 826 828 830 832 834 836 838 841 842 844 845 846 847 848 849 850 851 852 853 854 854
788 786 787 779 777 770 771 765 770 768 765 770 767 783 795 794 791 791 792 794 796 802 807 811 816 820 823 826 828 829 831 833 835 837 839 841 843 845 846 847 848 849 850 851 853 854 855 855 856
781 786 784 777 773 776 769 772 771 771 775 765 768 783 797 795 795 792 792 795 798 805 809 814 818 821 824 826 829 831 833 835 837 838 840 843 844 845 847 848 849 850 852 852 853 855 855 856 856
780 791 789 779 775 776 771 777 772 769 772 773 776 787 792 794 796 794 792 796 800 807 811 815 819 822 825 827 829 832 834 836 838 840 842 843 845 846 847 848 849 851 852 853 854 855 856 857 857
787 788 778 765 771 777 776 775 775 775 777 778 782 786 792 793 795 795 794 799 804 807 813 815 818 823 826 827 829 832 835 837 839 841 842 843 845 847 847 849 849 851 852 853 854 855 856 856 857
779 786 774 774 772 771 774 778 775 774 787 782 785 787 791 795 794 798 798 801 807 809 814 816 819 822 825 827 830 832 834 836 839 840 842 843 845 848 848 850 849 850 851 852 853 854 855 856 857
783 778 778 780 785 784 778 776 780 778 785 781 775 783 790 794 794 797 800 803 804 809 813 816 818 821 825 827 829 831 833 835 839 841 842 844 845 846 848 849 849 849 850 850 851 852 853 855 856
787 779 777 780 790 787 782 777 780 783 780 778 774 782 791 795 797 800 801 800 803 807 812 815 817 820 823 826 827 830 832 835 837 839 842 843 845 845 846 848 849 850 850 851 852 852 853 854 854
772 770 777 779 783 784 798 780 780 781 776 774 778 784 790 793 796 799 801 801 804 807 808 812 816 818 822 824 826 828 831 833 836 838 840 842 844 845 845 846 847 848 849 850 851 851 852 852 853
756 773 777 781 781 789 798 804 787 778 775 778 781 786 787 793 796 796 796 799 801 805 808 812 815 817 820 822 825 827 830 831 833 837 839 841 842 843 844 845 846 847 848 849 849 850 851 851 851
763 769 788 791 782 787 795 800 782 778 782 783 783 785 786 791 792 793 796 798 800 803 806 810 812 816 818 821 824 825 827 830 832 835 837 839 840 842 843 844 845 846 847 848 848 849 849 849 849
777 785 778 785 784 790 799 808 776 776 782 784 783 786 786 788 791 793 795 796 798 801 804 807 810 813 815 818 822 823 825 828 831 833 836 837 839 840 842 843 844 845 846 846 847 847 847 847 847
775 776 774 775 783 786 804 804 781 773 779 781 782 785 787 786 789 791 794 797 797 799 803 805 809 811 813 816 819 822 824 826 828 831 833 835 837 838 840 842 843 844 844 844 845 845 845 845 844
766 769 770 767 763 777 786 790 785 779 779 782 784 786 786 785 785 788 793 795 797 798 800 804 806 808 812 814 817 820 822 825 826 828 830 832 834 837 838 840 841 842 842 842 843 843 843 842 842
785 770 767 764 771 778 781 784 781 780 782 781 781 782 783 785 785 786 789 793 794 796 798 801 803 806 809 811 815 818 820 822 824 826 829 830 832 834 836 837 838 839 839 840 840 840 840 840 840
786 775 769 787 774 780 786 787 779 773 774 773 773 774 775 778 780 784 784 788 791 794 796 800 802 804 807 811 812 815 817 819 821 823 826 828 830 832 833 835 835 835 836 836 837 837 837 837 837
777 762 759 768 783 792 779 797 775 768 771 769 771 771 771 771 772 776 780 783 786 790 794 797 800 802 804 807 809 811 814 817 820 821 823 826 828 829 830 831 832 832 833 833 834 834 835 834 834
769 756 763 769 777 776 785 799 775 761 772 769 770 770 769 768 768 769 772 776 781 785 788 793 797 800 802 805 808 811 813 815 818 820 822 824 826 827 827 828 828 829 830 830 831 831 832 832 832
765 768 777 774 781 809 780 784 781 771 764 763 762 761 763 765 764 767 768 773 780 784 788 789 795 798 800 802 805 809 811 813 816 819 821 823 823 824 825 826 826 827 828 828 828 828 828 828 828
767 780 801 811 816 807 774 786 781 756 756 754 760 759 758 759 763 766 769 771 777 782 786 789 791 795 799 802 803 805 809 812 815 817 819 821 822 823 823 824 824 825 825 826 826 826 826 826 826
770 771 796 798 807 798 774 789 777 754 754 756 756 759 760 762 764 763 764 767 772 779 785 789 789 792 796 800 803 802 806 810 813 816 817 819 820 821 822 822 822 822 823 823 824 823 823 823 822
774 783 775 785 771 796 785 771 756 753 756 755 758 760 762 761 763 763 763 765 770 775 779 785 790 791 794 797 803 799 807 808 809 813 816 817 818 819 820 820 821 821 821 821 820 820 820 820 820
779 772 790 801 804 787 782 774 775 763 763 762 767 769 768 763 765 765 767 767 770 774 779 785 788 788 791 795 798 801 808 804 806 811 814 814 816 817 817 818 818 818 819 818 818 817 817 819 818
782 790 780 781 795 800 797 782 756 764 765 771 772 772 771 770 769 768 767 768 771 774 777 782 787 790 792 791 794 800 799 803 808 810 810 811 813 814 815 815 815 815 815 816 816 816 816 816 816
780 779 780 804 795 795 802 791 753 760 763 768 771 766 764 767 769 770 770 770 772 774 778 782 785 788 790 795 792 794 801 803 804 805 808 810 809 812 813 813 813 812 812 813 814 815 815 814 815
Wind_Speed
7 10 4 2 2 4 6 9 4 6 2 8 8 7 3 10 6 8 31 25 33 29 27 26 21 18 17 16 14 14 14 14 14 16 16 16 16 16 17 17 17 17 17 17 16 16 16 16 16
7 9 4 3 4 6 8 13 11 9 8 5 5 8 5 5 5 11 15 30 29 30 27 25 22 19 17 15 15 15 14 13 15 16 14 15 15 16 16 16 16 17 17 17 15 16 15 14 15
9 9 3 4 4 9 8 10 9 6 6 1 2 6 8 5 6 11 27 30 31 26 26 23 22 19 17 16 16 15 13 14 15 17 14 14 14 15 16 16 16 16 16 15 15 15 15 14 14
8 6 4 7 10 13 14 4 8 8 3 4 5 10 4 14 3 13 29 29 29 26 25 23 21 19 16 17 17 14 11 12 16 17 15 14 11 14 15 16 16 16 14 14 14 15 14 14 14
9 4 6 8 15 10 6 9 2 3 8 5 6 5 4 8 8 21 25 26 26 28 24 23 20 18 17 17 15 11 9 11 16 17 15 15 9 13 14 15 15 14 14 13 13 13 13 12 13
3 5 7 12 14 15 7 7 5 4 2 7 5 7 3 9 5 14 22 24 27 27 25 22 19 17 17 16 12 8 10 14 15 17 16 16 10 11 12 13 14 13 12 12 11 11 10 10 9
4 6 11 15 11 11 9 3 3 6 5 6 0 6 4 5 5 6 20 21 28 28 23 21 19 17 17 12 8 10 15 15 16 16 15 13 10 8 8 11 11 11 10 9 8 7 7 6 6
3 3 13 13 15 6 6 4 7 7 3 2 6 5 9 6 3 4 13 24 27 24 22 20 18 19 16 12 9 13 13 13 15 16 15 15 11 7 8 8 9 8 7 7 6 5 4 3 2
4 5 10 19 2 6 6 4 1 5 6 5 6 5 8 13 6 7 7 20 26 23 21 21 17 16 13 11 12 15 13 15 14 14 14 12 7 9 8 8 5 5 5 4 3 2 2 2 3
6 4 12 12 12 12 7 5 6 3 7 9 9 12 13 12 12 5 9 10 13 23 18 22 20 18 15 12 13 13 14 14 13 13 12 10 8 9 10 4 4 3 2 2 1 1 1 2 2
8 11 11 3 6 8 10 6 1 4 8 8 8 10 8 11 12 13 8 10 12 16 16 19 17 20 16 15 15 13 12 13 13 12 7 6 9 7 6 2 1 2 1 1 1 2 3 1 2
6 12 16 7 7 4 5 8 5 11 7 5 9 12 5 8 7 11 17 16 17 15 18 19 18 18 18 12 14 17 11 13 13 11 8 8 9 6 5 7 2 2 4 1 4 5 4 3 6
14 10 15 10 3 7 9 7 7 11 9 6 8 11 8 5 8 10 6 16 19 19 18 20 20 20 20 15 15 14 14 13 10 11 10 8 8 7 8 7 6 5 5 6 6 5 5 7 7
17 16 11 12 9 2 7 7 9 7 9 8 5 9 9 8 10 5 9 9 8 17 21 16 19 19 19 18 16 10 12 11 11 10 10 9 7 8 8 7 8 7 7 6 6 6 6 6 7
9 15 3 9 9 4 3 19 9 7 6 7 6 8 9 8 4 14 9 9 12 19 17 22 20 21 20 17 15 15 10 11 12 9 9 9 9 8 7 8 7 6 7 6 7 8 9 9 10
8 3 8 9 6 2 6 10 9 8 8 6 4 5 8 6 6 9 15 13 15 16 17 20 19 16 20 18 17 16 10 11 10 11 11 10 9 8 8 7 7 7 7 8 8 9 10 11 11
11 8 16 16 16 4 6 11 14 14 11 9 7 5 6 9 3 9 5 5 14 15 17 17 18 18 17 17 17 16 9 13 12 11 10 10 11 10 9 8 7 8 9 9 10 10 11 12 13
10 8 9 11 12 9 13 18 5 16 11 11 6 6 8 4 8 11 11 5 7 12 14 15 17 16 15 17 14 14 12 10 10 11 11 11 10 11 10 9 9 9 10 11 12 13 14 14 15
10 11 13 10 10 14 13 8 5 3 5 6 8 10 7 9 10 14 10 10 7 8 10 15 16 18 16 17 17 14 13 13 13 10 8 8 7 7 7 9 9 10 12 13 12 14 15 16 15
2 11 4 3 8 2 11 12 12 10 10 13 13 14 14 14 7 15 15 12 10 9 11 13 16 16 18 16 15 14 14 13 12 13 11 11 11 13 13 13 12 14 15 15 14 15 15 16 16
8 11 13 6 6 10 8 9 10 14 10 12 12 11 14 18 18 8 17 18 14 11 12 12 11 14 15 14 14 14 11 9 10 9 9 10 11 12 13 13 14 15 15 17 18 18 17 17 19
8 17 13 16 7 4 8 3 12 15 14 13 9 10 9 8 18 13 15 20 20 16 15 14 13 16 16 17 14 14 11 7 7 11 11 10 7 7 7 7 8 9 9 10 10 10 12 12 14
4 13 4 7 8 1 6 2 6 12 9 9 9 10 9 8 8 14 13 24 25 22 22 18 16 16 17 16 15 13 10 9 11 9 8 6 5 5 6 6 7 7 8 8 10 10 9 10 12
5 7 9 2 3 2 6 3 5 5 9 8 8 11 11 9 6 6 16 21 18 20 18 21 17 16 14 14 14 12 12 10 8 7 7 5 4 5 5 4 4 4 6 7 8 8 9 10 10
7 7 3 2 1 3 1 5 9 1 6 2 6 1 3 9 10 8 9 16 20 18 18 21 21 18 15 14 15 15 13 11 8 9 8 8 5 2 4 6 5 6 8 9 9 9 9 8 8
6 5 4 4 3 4 2 2 5 4 8 7 7 4 6 5 3 6 10 20 24 21 18 17 20 19 17 15 14 14 13 11 10 9 7 6 7 5 7 7 6 7 7 8 7 8 6 7 10
2 3 1 4 4 4 4 5 3 6 5 4 4 5 1 4 5 4 4 15 22 24 24 22 21 20 19 18 16 12 11 13 11 7 7 6 5 6 6 5 5 6 6 7 6 5 6 5 8
4 2 2 3 1 1 4 4 3 5 6 8 8 8 7 5 5 2 3 9 17 21 19 18 21 23 22 17 14 15 13 9 8 7 7 5 4 4 3 4 5 5 6 6 5 4 5 4 7
2 2 2 1 3 0 2 1 7 9 9 9 7 6 5 5 2 2 1 3 7 18 19 20 18 18 19 21 18 15 11 9 9 8 5 5 4 5 4 5 4 4 5 5 3 5 5 4 5
6 2 7 3 3 1 3 4 3 9 8 8 7 4 3 6 4 2 4 7 8 16 18 18 19 21 19 16 16 15 12 12 9 7 5 4 4 4 5 5 4 4 4 3 2 3 1 1 1
Wind_Direction
274 289 269 292 227 222 234 245 358 195 167 157 295 31 34 27 336 133 145 135 137 141 150 150 152 149 142 135 125 116 113 118 113 109 100 93 86 85 89 92 93 96 99 95 91 87 84 85 83
277 283 197 267 233 211 227 235 147 212 60 37 321 348 24 71 49 127 133 134 137 140 147 154 155 152 146 137 128 118 112 116 124 117 110 99 88 88 93 95 98 100 98 94 91 85 85 86 86
269 269 211 214 221 235 217 214 150 112 33 270 112 60 351 7 134 123 131 138 134 138 143 155 153 153 147 138 131 122 110 120 129 128 117 106 94 90 92 98 104 100 99 95 88 85 83 87 92
248 230 272 228 218 233 253 109 77 118 124 265 46 126 139 40 162 121 136 138 131 140 153 155 154 151 145 139 135 128 114 119 134 134 125 119 99 88 94 99 105 109 105 97 90 85 87 85 89
255 253 227 228 240 226 223 84 53 199 163 157 111 41 91 1 36 131 143 138 137 143 149 152 153 150 146 144 141 133 128 128 137 136 129 130 112 95 97 99 102 104 103 99 94 89 89 91 94
233 231 196 224 216 235 104 118 163 274 105 131 109 91 47 338 22 151 148 142 139 136 142 148 152 150 147 145 144 146 144 133 137 140 130 141 120 99 98 103 101 101 103 104 101 97 93 97 100
217 246 229 212 209 217 111 42 223 193 177 101 114 108 49 342 333 162 156 142 127 130 139 145 150 150 149 145 143 142 143 136 139 141 139 137 117 100 109 108 108 106 106 105 103 101 98 94 94
220 253 231 238 222 178 96 113 332 0 39 87 0 140 141 207 269 317 182 134 125 136 140 143 150 151 152 146 140 145 144 143 145 148 144 144 137 139 141 122 113 113 112 112 112 109 101 90 73
317 216 217 233 202 123 133 147 138 286 90 62 50 78 95 156 165 100 66 129 131 140 149 152 154 153 153 153 142 151 141 145 142 146 146 146 145 140 147 143 127 122 121 126 125 111 86 56 53
197 220 215 226 157 208 168 213 144 167 137 120 97 89 131 152 159 120 111 82 124 137 153 160 157 162 162 155 144 153 157 150 146 154 157 158 167 158 174 166 174 157 152 150 105 342 303 69 4
198 215 246 96 22 173 166 117 223 195 84 71 74 108 124 147 146 181 165 179 145 157 163 167 161 165 172 174 157 157 156 164 179 179 153 162 181 191 208 235 185 181 129 204 7 17 41 53 323
227 221 245 49 5 265 258 153 92 78 89 111 97 110 116 155 158 180 184 197 173 176 183 177 171 172 174 168 184 177 164 176 173 177 180 186 180 179 177 216 192 149 237 116 235 287 292 248 280
214 185 229 232 212 315 264 176 153 132 132 119 80 120 127 163 163 195 197 175 174 186 181 188 178 183 184 180 196 186 177 170 178 178 187 189 186 190 187 193 204 216 212 217 226 234 241 258 263
187 214 213 225 241 8 338 245 148 231 131 102 83 104 139 175 169 186 221 151 181 182 194 186 187 185 185 188 205 186 184 184 185 184 189 197 197 197 196 196 205 211 223 212 226 238 249 255 261
200 189 129 288 177 180 20 274 204 182 118 140 158 133 117 156 211 205 202 192 171 201 208 202 193 189 191 187 192 194 203 184 181 185 190 198 202 198 206 201 218 219 219 223 233 243 251 258 262
188 232 172 242 189 210 137 248 199 201 143 171 182 300 132 131 180 200 199 195 201 199 193 202 200 200 192 192 200 205 205 187 181 193 200 196 207 203 209 215 218 223 226 232 240 250 256 261 264
164 197 198 192 181 114 106 270 194 195 180 180 158 257 290 140 139 129 179 203 191 198 196 192 190 190 199 191 197 202 208 193 198 199 203 212 203 217 215 223 233 234 239 243 250 255 260 268 276
176 216 185 207 161 146 191 236 320 188 207 219 188 233 266 209 163 167 151 180 195 198 195 193 189 187 188 183 194 200 209 191 207 205 209 216 216 220 222 224 238 243 249 252 254 261 262 271 278
193 213 184 208 165 167 201 210 232 220 194 237 231 232 243 260 186 153 160 161 176 199 188 193 194 191 192 192 194 197 202 210 221 223 223 210 212 227 234 241 243 258 258 264 267 275 282 286 281
311 253 195 175 124 51 200 215 225 195 208 215 215 221 224 249 248 156 164 173 172 187 203 202 199 210 199 197 198 206 207 209 223 219 221 228 231 235 242 243 247 251 259 261 266 270 283 282 281
243 239 159 171 133 160 233 221 225 208 206 210 215 212 223 218 239 189 169 177 177 186 186 200 201 196 201 192 193 199 193 175 175 163 189 216 222 228 235 242 255 261 265 271 273 275 274 278 276
227 224 168 164 147 195 191 257 215 208 202 220 220 235 233 242 219 217 181 178 180 180 188 189 194 195 188 191 191 206 206 201 210 196 193 211 227 235 246 250 253 258 261 266 270 274 269 271 273
286 126 263 146 178 14 182 256 268 176 205 206 215 237 236 236 230 215 190 180 184 180 186 188 193 196 204 203 205 200 191 172 169 178 196 215 239 253 263 265 267 265 264 263 264 266 265 268 273
142 110 100 254 168 318 198 204 281 183 193 198 199 219 215 216 226 203 148 156 167 179 185 178 182 184 186 178 177 174 176 181 178 180 175 194 210 268 283 279 275 283 279 277 274 276 282 281 268
164 183 117 46 33 197 103 196 255 90 110 66 137 1 261 197 192 199 170 151 166 182 187 184 180 178 177 174 169 172 170 170 167 166 171 168 181 186 236 285 285 284 283 286 286 283 273 274 275
194 182 136 183 181 185 36 239 249 53 55 94 82 57 342 356 352 218 184 167 171 186 188 193 178 172 172 174 169 165 163 164 169 181 182 182 192 209 253 278 285 281 286 287 287 284 284 267 276
264 261 97 351 317 98 180 256 323 151 144 145 159 125 188 270 282 281 61 155 163 176 189 191 185 170 170 170 174 149 172 171 170 176 185 194 213 234 257 273 287 293 296 296 295 291 269 276 282
171 204 57 340 95 156 173 209 214 150 120 83 65 59 40 22 324 25 9 158 176 177 184 189 186 174 169 169 165 164 176 158 160 174 187 182 220 239 254 264 278 289 298 304 307 300 280 270 261
153 14 275 318 78 285 164 290 126 118 112 111 103 94 74 33 353 284 174 181 175 164 169 178 178 170 168 164 166 175 160 159 170 183 186 202 219 249 251 261 269 279 290 292 298 274 269 234 236
302 217 217 122 230 63 143 290 110 121 123 130 148 170 175 143 114 151 167 171 168 164 169 173 169 170 172 180 167 165 174 172 171 175 196 214 209 262 264 268 264 268 283 284 260 290 273 214 188